Hourly Weather Roundup
Issued by NWS Central Illinois

Home | Current Version | Previous Version | Text Only | Print | Product List | Glossary On
Versions: 1 2 3 4 5 6 7 8 9 10 11 12 13 14 15 16 17 18 19 20 21 22 23 24 25 26 27 28 29 30 31 32 33 34 35 36 37 38 39 40 41 42 43 44 45 46 47 48 49 50
000
NZUS43 KILX 062110
HWRILX

AREA WEATHER ROUNDUP
NATIONAL WEATHER SERVICE, LINCOLN IL
300 PM CST SAT FEB 06 2016


CITY           SKY/WX    TMP DP  RH WIND       PRES   REMARKS
BLOOMINGTON    SUNNY     47  31  54 SW12      30.19S
CHAMPAIGN      SUNNY     46  31  55 SW10      30.20F
DANVILLE       SUNNY     44  29  57 SW14      30.18F
DECATUR        SUNNY     49  30  48 SW15      30.20F
EFFINGHAM      SUNNY     52  30  42 SW12      30.23F
FLORA          SUNNY     55  29  37 SW6       30.24S
GALESBURG      SUNNY     46  29  51 SW10      30.15F
JACKSONVILLE   SUNNY     52  32  45 SW9       30.18F
LACON          SUNNY     46  26  46 SW9       30.16F
LAWRENCEVILLE  SUNNY     51  28  41 SW9       30.25F
LITCHFIELD     SUNNY     50  33  52 SW15      30.20F
$$


CITY           SKY/WX    TMP DP  RH WIND       PRES   REMARKS
LINCOLN        SUNNY     49  32  53 S6        30.19S
MACOMB         SUNNY     47  30  51 SW10      30.19F
MATTOON        SUNNY     48  28  46 S10       30.20F
MT CARMEL AP   SUNNY     52  27  37 CALM      30.24F
OLNEY-NOBLE AP SUNNY     52  28  40 SW6       30.24F
PARIS          SUNNY     47  32  57 SW8       30.22F
PEORIA         SUNNY     47  24  40 SW12      30.18F
PONTIAC        SUNNY     46  32  59 SW14      30.19S
RANTOUL        SUNNY     46  33  59 SW10      30.19F
ROBINSON       SUNNY     50  28  42 SW7       30.24F
SPRINGFIELD    SUNNY     51  29  42 SW9       30.20S
TAYLORVILLE    SUNNY     50  34  53 SW14      30.20S
$$

...REGIONAL REPORTS...


CITY           SKY/WX    TMP DP  RH WIND       PRES   REMARKS
CHICAGO O`HARE MOSUNNY   40  28  62 W16       30.15F WCI  31
KANKAKEE       SUNNY     43  30  60 SW12      30.20S
MOLINE         SUNNY     44  28  53 SW12      30.14F
MOUNT STERLING SUNNY     48  27  43 SW12      30.17F
MOUNT VERNON   SUNNY     54  27  35 SW6       30.25S
PITTSFIELD     SUNNY     51  29  42 SW12      30.19F
QUINCY         SUNNY     49  27  42 SW12      30.18F
ROCKFORD       PTSUNNY   41  26  55 W10       30.16F WCI  35
$$


CITY           SKY/WX    TMP DP  RH WIND       PRES   REMARKS
BURLINGTON     SUNNY     46  29  51 SW12      30.15F
CEDAR RAPIDS   PTSUNNY   38  32  79 W13       30.14S WCI  30
DES MOINES     MOSUNNY   35  28  75 SW13      30.14F WCI  26
KIRKSVILLE     SUNNY     47  28  47 SW14      30.18F
OTTUMWA        SUNNY     42  32  67 SW14      30.15F WCI  35
ST LOUIS       MOSUNNY   57  27  31 W14G25    30.21F
$$


CITY           SKY/WX    TMP DP  RH WIND       PRES   REMARKS
TERRE HAUTE    SUNNY     48  27  44 SW6       30.23F
EVANSVILLE     SUNNY     55  25  31 W6        30.27S
INDIANAPOLIS   SUNNY     45  23  42 SW8       30.22F
LAFAYETTE      SUNNY     42  26  53 SW12      30.21F
MADISON        PTSUNNY   32  25  75 SW8       30.11F WCI  25
MILWAUKEE      CLOUDY    33  26  75 W14G22    30.13F WCI  23
$$





USA.gov is the U.S. government's official web portal to all federal, state and local government web resources and services.